Theta_e
304 299 297 300 302 301 300 297 296 299 302 298 298 298 301 304 304 303 304 304 305 306 308 305 304 304 301 299 298 297 296 296 296 295 294 293 292 294 293 293 292 291 290 290
299 295 301 302 301 300 299 296 296 300 302 296 297 296 300 302 302 303 303 303 304 306 306 303 302 302 299 297 297 296 296 295 295 295 295 294 294 293 293 293 291 291 290 289
296 299 300 299 299 296 296 295 296 296 300 296 294 293 297 300 301 302 302 303 304 304 305 302 300 299 298 296 296 296 296 296 295 295 294 292 291 290 289 290 290 290 290 289
298 301 299 297 295 297 293 299 298 296 294 290 295 287 296 298 299 299 299 301 304 303 304 302 300 298 297 296 297 296 296 295 295 295 292 291 289 288 290 291 291 289 289 288
296 298 295 294 296 299 295 295 295 295 293 293 292 289 293 293 293 294 297 302 305 305 302 301 299 298 297 297 296 296 295 294 294 294 292 291 290 291 291 289 288 288 289 288
296 297 297 298 293 295 295 293 292 292 291 285 292 291 291 294 294 297 300 301 304 302 301 301 300 298 297 297 296 295 294 293 293 292 291 291 290 290 288 287 286 287 287 287
296 295 297 296 293 293 293 292 288 287 286 285 294 290 293 298 297 298 299 301 302 301 300 300 297 295 295 295 294 294 293 292 292 291 291 290 290 290 288 287 287 285 285 285
291 289 295 295 296 296 291 293 289 283 284 287 289 286 292 299 300 300 300 300 300 299 300 299 297 296 295 294 293 293 292 291 291 290 290 290 289 288 287 286 285 284 284 284
290 290 292 295 294 297 292 287 295 290 288 285 289 293 299 298 297 298 297 297 298 298 298 297 297 295 295 294 293 292 292 291 290 289 289 288 287 286 285 285 284 283 283 282
295 288 294 288 291 292 291 293 287 289 283 281 287 290 291 293 294 296 295 296 298 299 299 298 297 296 295 294 293 292 292 290 290 289 288 286 285 284 284 284 282 282 282 281
296 292 290 288 287 290 287 287 287 287 289 284 283 287 295 294 296 296 296 297 298 300 299 298 297 296 295 294 293 292 291 290 289 287 287 285 284 283 283 281 281 281 280 279
295 292 287 290 295 293 294 292 291 285 284 287 286 286 296 296 297 297 297 298 301 301 300 300 299 296 294 293 292 291 290 290 289 287 285 284 283 281 280 280 279 280 278 278
293 287 284 286 290 287 287 290 291 292 290 285 283 286 297 298 298 297 297 298 299 298 298 300 300 296 294 293 292 291 290 289 288 286 284 282 280 279 279 278 278 278 277 277
296 289 286 282 287 291 287 288 290 289 285 285 286 288 293 295 296 298 299 300 300 299 298 299 298 296 295 293 291 290 289 288 286 284 281 279 279 278 278 278 277 276 276 275
292 284 288 289 290 291 288 289 290 287 287 284 287 289 293 295 296 298 299 298 298 298 298 298 296 297 294 291 289 288 287 286 284 281 279 278 278 278 277 276 275 275 274 274
291 284 287 284 288 288 286 288 289 289 290 290 289 288 295 296 297 296 297 297 297 297 298 297 296 295 291 289 289 286 286 284 281 279 278 278 277 276 275 275 274 273 273 272
286 285 284 280 287 286 281 286 288 289 292 291 287 292 296 296 296 296 298 298 297 298 297 295 294 294 291 289 287 285 284 282 279 278 277 276 275 273 273 273 272 271 271 271
287 285 285 282 284 275 287 293 292 290 291 293 293 294 296 296 298 298 299 298 297 297 296 296 297 296 292 289 286 284 282 278 277 277 275 274 273 272 271 270 269 270 270 270
291 288 283 280 280 285 288 291 290 289 289 294 293 294 296 297 295 295 299 299 297 298 298 298 297 295 290 286 284 281 278 276 276 275 273 272 272 270 269 268 269 269 269 269
290 290 284 282 278 276 287 293 296 295 283 294 295 294 294 294 287 292 298 294 295 296 295 291 289 286 284 282 280 276 274 274 274 274 272 271 270 269 268 268 268 269 268 268
283 284 281 281 280 284 292 294 295 283 286 294 295 294 294 292 294 297 295 292 292 290 286 285 283 281 281 278 276 274 274 273 274 272 270 270 268 268 268 268 268 267 266 267
286 283 281 281 279 277 295 293 287 293 297 297 297 296 294 295 295 295 295 294 287 285 281 281 278 277 275 276 275 274 272 273 272 269 268 267 267 267 266 265 265 265 265 265
284 289 284 286 286 294 296 295 298 298 297 297 295 294 295 294 294 294 293 291 285 284 280 278 277 274 274 275 276 273 273 270 268 267 266 265 265 266 265 263 264 265 265 266
283 286 282 280 286 290 293 294 295 293 292 293 293 294 295 294 294 292 289 288 283 281 278 276 274 272 272 273 274 274 269 269 267 265 265 264 264 264 264 265 265 266 266 266
283 283 282 283 284 288 288 290 291 291 291 291 292 293 294 293 291 292 292 291 290 282 278 275 273 272 272 273 273 268 268 267 265 265 264 264 264 264 264 266 266 266 267 267
280 279 277 277 284 284 285 288 288 286 286 287 287 288 290 291 291 293 292 293 292 283 277 274 274 272 271 271 267 267 266 267 266 265 264 264 264 264 265 264 263 266 267 267
Wind_Speed
7 9 17 18 19 22 22 21 23 24 9 10 19 22 22 21 21 23 23 22 20 20 16 16 18 17 17 17 18 19 17 16 12 9 8 7 7 7 6 5 4 4 2 1
6 17 21 18 11 15 19 21 26 22 11 7 16 23 20 22 25 24 23 22 18 16 13 15 18 17 18 18 18 18 18 17 14 9 8 6 7 6 5 5 5 5 4 4
23 19 3 6 15 15 19 21 21 21 14 13 14 20 17 15 16 18 20 19 16 15 13 16 19 20 19 20 20 18 17 17 15 13 8 6 4 3 6 6 6 6 6 5
20 19 20 18 21 18 20 14 19 20 11 15 2 17 14 14 16 13 19 17 15 11 10 14 18 19 21 19 17 19 18 18 15 15 11 12 8 7 7 5 4 4 6 7
11 8 8 14 19 12 11 3 5 9 14 18 15 17 14 7 9 12 18 18 12 8 11 15 17 18 19 18 18 18 18 17 16 16 14 11 10 6 5 5 6 6 6 7
19 2 4 5 3 3 6 3 4 5 6 14 19 20 7 7 7 7 12 13 7 7 11 13 14 15 16 16 16 17 18 17 17 16 16 14 12 9 7 7 6 6 5 4
14 23 6 4 6 5 9 7 7 10 8 19 13 14 16 9 11 14 21 17 6 9 12 14 15 15 15 18 18 16 19 20 18 17 17 15 13 12 12 9 7 7 5 5
9 11 19 15 19 8 15 12 7 14 15 25 4 15 11 15 15 14 13 5 6 10 11 13 15 15 16 16 18 19 20 20 20 18 17 14 13 9 8 9 7 6 6 6
10 13 4 11 3 8 10 9 4 10 1 10 14 25 18 7 11 12 8 6 11 12 12 13 15 16 15 17 21 21 20 19 20 19 16 16 14 13 11 10 9 7 7 6
9 14 8 7 3 5 6 2 6 6 7 18 31 24 18 12 16 11 6 10 11 9 13 12 14 15 15 15 16 18 19 20 18 18 16 14 14 12 10 10 10 9 8 7
10 8 9 7 13 15 8 8 7 5 10 14 22 13 6 10 8 6 7 8 9 9 9 11 12 12 14 14 16 17 18 20 19 18 17 15 14 13 11 10 9 8 8 7
9 4 11 22 13 8 14 20 21 13 17 10 16 32 2 8 8 4 7 6 6 6 9 12 13 13 14 15 15 17 17 19 19 17 16 15 14 12 11 11 10 9 9 8
8 4 7 10 11 5 9 14 15 19 14 27 18 31 10 23 16 7 10 10 9 10 12 13 12 15 16 16 17 17 18 19 17 16 16 15 14 13 13 11 10 10 9 8
1 8 14 20 25 7 13 19 19 21 19 24 27 29 38 27 24 26 24 20 16 15 16 16 12 13 14 14 15 16 16 16 17 17 17 16 16 14 12 10 9 8 7 6
2 13 20 29 34 34 28 19 14 24 25 23 29 24 27 31 28 26 23 22 24 24 21 14 15 15 14 13 15 14 15 17 17 17 16 15 14 12 11 9 9 7 6 6
10 8 16 24 28 32 32 27 30 37 31 27 28 30 33 38 34 31 35 31 23 25 18 17 15 15 13 17 17 16 17 18 17 18 16 14 13 11 10 9 8 7 6 6
7 7 10 19 25 26 22 39 39 37 40 30 31 38 40 38 33 30 32 24 21 22 21 15 11 11 14 15 16 18 17 16 17 16 15 14 13 11 10 9 8 7 7 6
13 18 11 12 10 22 26 25 33 39 38 35 28 33 35 36 33 18 23 20 25 20 20 15 10 9 10 9 12 12 15 16 16 14 13 12 12 11 10 9 8 8 7 8
25 21 12 11 18 22 5 23 24 31 36 27 30 35 36 33 15 25 29 20 20 22 18 12 4 4 9 12 14 14 13 15 15 14 13 12 11 11 11 9 9 7 5 5
28 24 19 13 11 20 19 27 25 22 16 22 27 28 30 23 10 20 25 7 12 12 5 6 7 7 11 13 16 19 16 14 15 15 13 10 10 10 10 8 7 4 3 6
9 15 22 21 20 12 10 14 10 23 22 29 27 25 24 19 16 20 7 4 4 3 6 6 8 9 10 13 15 15 16 18 15 16 14 12 11 10 9 8 6 5 5 4
21 16 14 13 19 28 14 20 31 29 29 20 18 16 15 17 18 15 17 10 9 8 7 7 8 8 9 14 15 16 16 15 14 15 15 13 11 9 9 9 7 6 5 4
24 18 15 14 11 16 11 21 22 22 23 20 13 16 17 13 11 11 8 9 9 8 7 7 9 11 11 14 15 17 15 17 16 15 15 13 11 9 8 8 7 5 5 4
8 11 6 16 12 15 17 15 13 21 18 20 20 17 16 20 19 15 7 7 4 6 9 9 10 11 13 14 13 14 18 17 17 16 13 12 11 10 8 6 6 5 5 3
12 16 16 12 13 16 18 21 16 12 12 10 13 15 16 15 16 16 15 15 11 9 9 13 14 13 15 16 16 16 18 19 18 15 13 12 10 10 9 7 5 5 4 3
17 22 18 22 25 21 21 19 22 19 20 20 18 22 19 17 18 17 15 16 14 10 12 13 13 13 16 16 16 16 17 18 19 15 11 11 9 8 7 7 5 5 3 2
Wind_Direction
196 224 233 246 234 249 275 283 277 272 264 218 242 257 265 272 273 272 270 270 256 252 238 206 209 203 196 194 193 194 192 191 184 183 184 189 198 196 196 193 166 168 141 279
208 235 251 274 284 268 262 265 267 272 277 208 269 269 268 265 266 272 273 269 268 263 209 202 201 195 195 192 195 194 195 193 191 188 188 198 193 195 197 172 171 179 191 219
238 254 121 265 255 252 248 251 260 266 282 222 273 273 259 249 256 260 265 260 268 255 222 199 196 192 194 199 196 195 195 194 191 193 182 178 167 192 191 195 195 188 199 216
252 261 260 257 254 255 263 268 253 269 277 270 90 286 275 289 261 240 269 274 261 221 208 197 192 193 197 199 194 196 196 195 192 186 184 192 200 198 200 180 163 193 213 231
230 216 220 234 244 242 241 334 263 261 259 278 259 267 274 178 260 241 246 261 266 191 200 197 189 193 198 194 195 194 196 197 190 189 190 190 203 202 171 179 204 225 233 236
259 87 234 237 102 241 119 240 234 227 258 253 254 245 276 216 208 232 251 248 261 183 185 197 188 188 194 189 194 194 194 196 193 193 195 196 195 190 187 196 209 217 222 241
220 226 187 187 209 171 204 218 269 250 223 264 270 258 258 256 227 242 260 264 141 174 185 184 183 188 191 191 193 196 197 196 194 194 195 198 196 193 198 201 210 222 231 237
240 241 192 196 221 236 198 215 219 271 268 283 103 262 262 234 237 240 248 229 188 193 190 188 190 191 194 192 192 199 202 198 191 192 193 193 192 191 199 203 203 214 232 248
205 246 131 179 186 194 161 204 272 273 178 275 263 266 264 168 198 226 227 219 228 208 194 196 196 198 196 194 197 198 202 202 195 191 190 191 189 191 191 195 201 213 224 239
249 261 180 129 181 219 241 51 196 194 264 262 281 280 275 238 227 215 236 238 250 212 203 204 206 201 199 198 199 200 201 200 195 193 191 188 183 185 189 189 198 208 216 225
233 222 226 136 198 211 184 224 220 301 235 252 275 279 89 98 96 159 223 237 243 216 206 211 209 205 205 201 198 201 201 196 197 191 188 183 180 183 184 192 199 204 214 222
219 270 228 234 239 270 258 235 218 221 231 230 249 273 118 112 113 190 218 221 239 217 226 221 209 202 199 206 201 200 199 200 197 190 186 182 173 174 184 191 196 196 210 219
174 223 250 256 241 166 210 228 242 239 251 246 243 256 192 263 270 242 220 216 220 219 224 225 214 200 206 205 201 198 194 198 190 184 182 178 175 177 184 190 190 198 209 222
280 208 235 241 248 251 212 222 223 224 234 248 243 260 275 272 278 279 278 271 256 242 235 242 222 222 211 202 197 200 196 190 182 181 181 179 179 179 177 180 185 197 212 230
268 253 247 244 255 263 267 262 239 233 240 243 260 257 264 279 266 275 282 282 282 278 270 250 232 225 214 201 197 195 191 186 179 179 182 178 173 168 167 171 180 180 206 229
215 243 239 244 249 258 260 260 260 262 257 251 249 263 262 259 273 272 274 278 278 277 270 258 252 229 206 201 198 188 187 181 173 179 180 171 164 159 167 168 166 171 203 228
204 202 223 244 237 242 250 239 243 250 255 251 248 246 257 266 256 255 268 279 277 281 280 275 251 228 211 205 190 187 179 167 172 175 172 159 159 160 164 160 162 179 197 223
216 214 223 247 224 230 232 238 232 242 250 254 250 252 251 255 266 278 273 278 273 271 274 268 254 239 191 185 176 163 162 164 168 169 160 156 155 152 155 164 176 187 194 213
214 226 235 227 226 250 248 226 220 226 241 246 253 252 255 264 275 267 260 252 255 264 267 270 271 162 151 159 154 151 156 162 165 169 161 157 156 154 157 171 186 192 197 226
222 223 228 223 231 237 233 233 248 245 241 247 244 252 259 260 225 255 258 230 242 250 233 174 144 134 150 156 151 148 159 168 176 167 152 148 150 151 159 167 172 179 216 234
199 224 228 235 247 249 232 243 257 241 246 231 243 248 260 259 237 259 282 225 210 197 158 149 142 155 157 147 150 159 163 173 164 148 136 146 149 153 158 157 157 179 218 241
223 222 216 232 241 252 221 240 231 243 251 248 253 256 259 256 258 254 261 255 204 198 169 167 146 150 146 157 160 164 169 154 149 138 136 146 150 153 158 159 159 190 202 224
246 264 289 258 264 327 256 235 254 264 277 291 327 355 349 328 308 293 267 260 214 186 161 160 165 156 166 175 175 167 160 148 140 138 143 145 148 155 153 150 163 185 191 218
307 300 290 325 329 307 308 314 348 345 335 326 316 311 309 304 298 293 298 269 222 190 186 169 164 174 176 179 176 165 151 147 140 140 149 147 147 151 157 166 170 179 189 200
276 305 288 286 295 289 294 298 346 347 318 314 313 315 313 308 300 302 294 280 257 201 181 181 184 186 182 174 169 156 155 154 142 145 147 151 149 157 158 169 169 180 182 219
275 278 271 277 288 283 288 318 315 307 298 294 296 293 283 278 271 270 267 268 269 219 185 192 190 184 178 171 156 157 158 157 142 144 153 154 149 154 155 156 145 200 192 206